AirNav   Everest Fuels
 
 284 users online  

41MI Sturgis Hospital Heliport
Stugis, Michigan, USA

GOING TO STUGIS?


FAA INFORMATION EFFECTIVE 18 JUNE 2020

Location

FAA Identifier: 41MI
Lat/Long: 41-47-43.1100N 085-24-23.6400W
41-47.718500N 085-24.394000W
41.7953083,-85.4065667
(estimated)
Elevation: 921 ft. / 281 m (estimated)
From city: 1 mile SE of STUGIS, MI
Time zone: UTC -4 (UTC -5 during Standard Time)
Zip code: 49091

Heliport Operations

Heliport use: Private use. Permission required prior to landing
Activation date: 11/2017
Control tower: no
ARTCC: CHICAGO CENTER
FSS: LANSING FLIGHT SERVICE STATION
Attendance: 
Segmented circle: no

Heliport Communications

WX AWOS-3 at IRS (1.8 nm NW): 121.325 (269-659-8715)
WX AWOS-3 at HAI (13 nm NW): 119.975 (269-273-6705)
WX AWOS-3 at ANQ (17 nm SE): 118.175 (260-668-5630)
WX AWOS-3 at OEB (18 nm NE): 118.125 (517-279-1810)

Nearby radio navigation aids

VOR radial/distance  VOR name  Freq  Var
AZOr167/27.3KALAMAZOO VOR/DME109.0001W
GSHr060/32.2GOSHEN VORTAC113.7000E
LFDr246/32.8LITCHFIELD VOR/DME111.2005W
OLKr010/(33.2)WEBSTER LAKE VOR110.4003W
ELXr123/38.2KEELER VOR/DME116.6000E

 
NDB name  Hdg/Dist  Freq  Var  ID
STURGIS135/1.638204WIRS .. .-. ...

Heliport Services

Runway Information

Helipad H1

Dimensions: 50 x 50 ft. / 15 x 15 m
Surface: asphalt, in fair condition
Latitude: 41-47.718500N
Longitude: 085-24.394000W
Elevation: 921.0 ft.
Traffic pattern: leftleft

Heliport Ownership and Management from official FAA records

Ownership: Privately-owned
Owner: STURGIS HOSPITAL
916 MYRTLE AVE
STURGIS, MI 49091
Phone 269-651-7824
Manager: SHARI RANSBURGER
916 MYRTLE AVE
STURGIS, MI 49091
Phone 269-659-4403

Additional Remarks

FOR CD CTC CHICAGO ARTCC AT 630-906-8921.

Instrument Procedures

There are no published instrument procedures at 41MI.

Some nearby airports with instrument procedures:

KIRS - Kirsch Municipal Airport (2 nm NW)
KHAI - Three Rivers Municipal Dr Haines Airport (13 nm NW)
KANQ - Tri-State Steuben County Airport (17 nm SE)
KOEB - Branch County Memorial Airport (18 nm NE)
C62 - Kendallville Municipal Airport (20 nm S)
 
Loc | Ops | Rwys | IFR | FBO | Links
Com | Nav | Svcs | Stats | Notes
Aerial photo
No photo
 
Airport distance calculator
Flying to Sturgis Hospital Heliport? Find the distance to fly.

From to 41MI

Sunrise and sunset
Times for 15-Jul-2020
 Local
(UTC-4)
 Zulu
(UTC)
Morning civil twilight05:4909:49
Sunrise06:2210:22
Sunset21:1401:14
Evening civil twilight21:4701:47

Current date and time
Zulu (UTC)  15-Jul-2020 08:53:47
Local (UTC-4)  15-Jul-2020 04:53:47
 
METAR
KIRS 150835Z AUTO 16003KT 10SM CLR 20/17 A3005 RMK AO2 T02000171
KHAI 
13nm NW 
150835Z AUTO 00000KT 10SM CLR 19/17 A3006 RMK AO2 T01910170
KANQ 
17nm SE 
150835Z AUTO 00000KT 10SM FEW040 17/16 A3006 RMK AO2
KOEB 
18nm NE 
150835Z AUTO 15005KT 10SM CLR 20/16 A3006 RMK AO2 T02000155
TAF
KAZO 
27nm N 
150540Z 1506/1606 VRB03KT P6SM BKN250 FM151200 19007KT P6SM SCT060 FM152300 20006KT P6SM VCTS OVC060CB FM160300 27003KT P6SM -RA OVC050 FM160500 07002KT 4SM -RA OVC050
KBTL 
32nm N 
150540Z 1506/1606 15006KT P6SM BKN250 FM151500 19009KT P6SM SCT060 FM152300 19007KT P6SM VCSH OVC250 FM160100 21004KT P6SM OVC100 FM160400 20004KT P6SM -RA OVC050
NOTAMs
Click for the latest NOTAMs
NOTAMs are issued by the DoD/FAA and will open in a separate window not controlled by AirNav.

 

 
 

Would you like to see your business listed on this page?

 If your business provides an interesting product or service to pilots, flight crews, aircraft, or users of the Sturgis Hospital Heliport, you should consider listing it here.  To start the listing process, click on the button below
 
Add a business
 

Other Pages about Sturgis Hospital Heliport

Update a link
 
Copyright © AirNav, LLC. All rights reserved. Privacy Policy  Contact